Weather reports worldwide

Advertisment
Kinloss, United Kingdom (3066): temperature & dewpoint: 04.12.2018 14:00:00 - 10.12.2018 14:00:00 (GMT)Kinloss, United Kingdom (3066): temperature -20cm & temperature -100cm: 04.12.2018 14:00:00 - 10.12.2018 14:00:00 (GMT)Kinloss, United Kingdom (3066): wind speed & gusts: 04.12.2018 14:00:00 - 10.12.2018 14:00:00 (GMT)Kinloss, United Kingdom (3066): wind direction: 04.12.2018 14:00:00 - 10.12.2018 14:00:00 (GMT)Kinloss, United Kingdom (3066): reduced air pressure: 04.12.2018 14:00:00 - 10.12.2018 14:00:00 (GMT)Kinloss, United Kingdom (3066): visibility: 04.12.2018 14:00:00 - 10.12.2018 14:00:00 (GMT)Kinloss, United Kingdom (3066): sunshine duration: 04.12.2018 14:00:00 - 10.12.2018 14:00:00 (GMT)Kinloss, United Kingdom (3066): precipitation: 04.12.2018 14:00:00 - 10.12.2018 14:00:00 (GMT)
Date & Time tt [°C] td [°C] tt -20cm [°C] tt -100cm [°C] ff [km/h] ff [kn] fx [km/h] fx [kn] dd ppp [hPa] vv [km] sd [min] rr [mm]
10.12.2018 14:00:00 3,2 0,8 - - 9 5 - - SW 1026,0 55 30 0,0
10.12.2018 13:00:00 4,1 1,2 - - 9 5 - - SW 1026,0 60 60 0,0
10.12.2018 12:00:00 3,4 1,2 - - 8 4 - - SW 1025,6 10 60 0,0
10.12.2018 11:00:00 2,6 0,7 - - 13 7 - - WSW 1025,3 55 60 0,0
10.12.2018 10:00:00 1,9 0,7 - - 8 4 - - S 1024,8 10 12 0,0
10.12.2018 09:00:00 1,9 0,6 6,5 7,4 13 7 - - SW 1024,5 10 0 0,0
10.12.2018 08:00:00 2,2 1,2 - - 15 8 - - WSW 1023,9 55 0 0,0
10.12.2018 07:00:00 1,5 0,5 - - 9 5 - - SW 1023,7 55 0 0,0
10.12.2018 06:00:00 2,7 0,7 - - 13 7 - - WSW 1023,1 60 0 0,0
10.12.2018 05:00:00 2,1 1,2 - - 15 8 - - SW 1022,2 55 0 0,0
10.12.2018 04:00:00 3,6 0,8 - - 18 10 - - W 1021,8 60 0 0,0
10.12.2018 03:00:00 2,2 0,5 - - 15 8 - - W 1021,3 50 0 0,0
10.12.2018 02:00:00 3,7 1,8 - - 16 9 - - WNW 1020,6 45 0 0,0
10.12.2018 01:00:00 1,8 1,0 - - 13 7 - - SW 1019,7 60 0 0,0
10.12.2018 00:00:00 2,1 1,1 - - 15 8 - - SW 1018,8 10 - 0,0
09.12.2018 23:00:00 2,9 2,0 - - 15 8 - - SW 1018,2 65 0 0,0
09.12.2018 22:00:00 3,2 1,8 - - 13 7 - - SW 1017,9 65 0 0,0
09.12.2018 21:00:00 4,0 2,1 - - 16 9 - - WSW 1016,8 65 0 0,0
09.12.2018 20:00:00 4,1 2,3 - - 24 13 - - W 1016,1 65 0 0,0
09.12.2018 19:00:00 4,5 1,4 - - 22 12 - - W 1015,5 50 0 0,0
09.12.2018 18:00:00 3,9 1,8 - - 18 10 - - WSW 1014,4 35 0 0,0
09.12.2018 17:00:00 3,4 1,3 - - 16 9 - - WSW 1013,3 40 0 0,0
09.12.2018 16:00:00 4,8 0,7 - - 21 11 - - W 1012,5 40 0 0,0
09.12.2018 15:00:00 5,4 0,9 - - 18 10 - - W 1011,4 40 0 0,0
09.12.2018 14:00:00 5,7 0,6 - - 22 12 - - W 1010,2 40 6 0,0
09.12.2018 13:00:00 5,5 0,8 - - 21 11 - - WNW 1009,2 35 12 0,0
09.12.2018 12:00:00 5,6 1,4 - - 18 10 - - W 1008,4 35 24 0,0
09.12.2018 11:00:00 5,4 1,7 - - 22 12 - - WNW 1007,6 28 48 0,0
09.12.2018 10:00:00 4,6 1,3 - - 21 11 - - WNW 1006,1 28 0 0,0
09.12.2018 09:00:00 4,8 2,8 6,7 7,4 21 11 - - WNW 1004,8 26 0 0,0
09.12.2018 08:00:00 4,8 3,2 - - 18 10 - - WNW 1003,3 30 0 0,0
09.12.2018 07:00:00 5,4 3,5 - - 24 13 - - NW 1001,5 25 0 0,0
09.12.2018 06:00:00 4,9 3,1 - - 28 15 - - WNW 999,6 40 0 0,0
09.12.2018 05:00:00 4,9 2,9 - - 24 13 - - WNW 997,9 45 0 0,0
09.12.2018 04:00:00 4,6 2,5 - - 24 13 - - WNW 996,4 30 0 0,0
09.12.2018 03:00:00 5,0 3,0 - - 22 12 - - WNW 995,2 40 0 0,0
09.12.2018 02:00:00 5,6 4,0 - - 18 10 - - WNW 993,7 30 0 0,0
09.12.2018 01:00:00 5,6 4,1 - - 21 11 - - NNW 992,5 35 0 0,4
09.12.2018 00:00:00 5,9 3,9 - - 21 11 - - NW 991,1 50 - 0,0
08.12.2018 23:00:00 5,6 4,2 - - 21 11 - - WNW 990,1 35 0 0,0
08.12.2018 22:00:00 5,7 4,2 - - 18 10 - - WNW 989,4 35 0 0,0
08.12.2018 21:00:00 6,0 4,2 - - 18 10 - - WNW 988,7 45 0 0,0
08.12.2018 20:00:00 6,1 4,6 - - 18 10 - - WNW 988,1 45 0 0,0
08.12.2018 19:00:00 6,2 4,7 - - 18 10 - - NW 987,4 50 0 0,0
08.12.2018 18:00:00 6,4 4,9 - - 18 10 - - NW 987,1 35 0 0,0
08.12.2018 17:00:00 6,4 5,6 - - 11 6 - - WNW 986,9 40 0 0,2
08.12.2018 16:00:00 6,4 6,0 - - 11 6 - - W 986,7 50 0 0,0
08.12.2018 15:00:00 6,5 6,1 - - 13 7 - - WNW 986,6 5 0 1,0
08.12.2018 14:00:00 7,4 5,6 - - 13 7 - - WSW 986,7 45 0 0,0
08.12.2018 13:00:00 7,4 6,0 - - 18 10 - - W 986,8 50 0 0,0
08.12.2018 12:00:00 7,5 6,1 - - 26 14 - - W 986,6 55 0 0,0
08.12.2018 11:00:00 6,8 6,1 - - 21 11 - - W 987,4 20 0 1,2
08.12.2018 10:00:00 7,2 5,9 - - 22 12 - - W 987,1 14 0 0,2
08.12.2018 09:00:00 7,3 5,0 6,4 7,5 29 16 - - W 986,5 40 0 0,0
08.12.2018 08:00:00 7,8 5,3 - - 24 13 - - W 986,1 45 0 0,2
08.12.2018 07:00:00 7,7 5,1 - - 29 16 50 27 W 984,8 45 0 0,0
08.12.2018 06:00:00 7,9 5,0 - - 35 19 57 31 W 983,6 55 0 0,0
08.12.2018 05:00:00 7,5 4,6 - - 39 21 54 29 W 982,0 60 0 0,0
08.12.2018 04:00:00 7,6 5,2 - - 37 20 50 27 W 980,8 60 0 0,2
08.12.2018 03:00:00 7,0 5,4 - - 28 15 - - WSW 979,8 14 0 0,8
08.12.2018 02:00:00 7,0 4,9 - - 29 16 50 27 WSW 979,0 30 0 0,0
08.12.2018 01:00:00 7,4 5,3 - - 34 18 55 30 WSW 977,9 40 0 0,2
08.12.2018 00:00:00 7,9 5,1 - - 35 19 57 31 WSW 976,4 55 - 0,0
07.12.2018 23:00:00 7,6 4,7 - - 41 22 59 32 SW 975,5 65 0 0,0
07.12.2018 22:00:00 7,1 5,3 - - 34 18 65 35 SW 975,1 45 0 0,6
07.12.2018 21:00:00 7,4 4,8 - - 42 23 67 36 SW 974,9 70 0 0,2
07.12.2018 20:00:00 7,5 3,9 - - 41 22 68 37 SW 974,6 70 0 0,0
07.12.2018 19:00:00 6,9 4,9 - - 46 25 68 37 SW 974,5 18 0 1,4
07.12.2018 18:00:00 7,3 4,1 - - 48 26 72 39 SW 974,7 19 0 0,2
07.12.2018 17:00:00 7,5 3,3 - - 48 26 72 39 SW 975,1 60 0 0,0
07.12.2018 16:00:00 7,0 2,9 - - 39 21 65 35 SW 975,9 50 0 0,0
07.12.2018 15:00:00 7,4 2,1 - - 34 18 68 37 SSW 976,9 70 30 0,0
07.12.2018 14:00:00 8,0 2,4 - - 28 15 67 36 SSW 978,3 50 54 0,0
07.12.2018 13:00:00 7,7 2,3 - - 42 23 72 39 SW 979,2 65 60 0,0
07.12.2018 12:00:00 7,0 2,7 - - 39 21 61 33 SSW 979,4 35 60 0,0
07.12.2018 11:00:00 7,1 2,5 - - 31 17 50 27 SSW 980,5 65 30 0,0
07.12.2018 10:00:00 6,7 2,1 - - 18 10 48 26 SSW 980,9 65 0 0,0
07.12.2018 09:00:00 7,0 2,6 6,0 7,7 21 11 - - S 981,9 60 0 0,0
07.12.2018 08:00:00 7,5 2,3 - - 16 9 54 29 SW 983,0 55 0 0,0
07.12.2018 07:00:00 8,8 5,2 - - 15 8 - - S 983,5 55 0 0,2
07.12.2018 06:00:00 9,6 4,9 - - 22 12 - - SSE 983,9 75 0 0,0
07.12.2018 05:00:00 9,4 4,9 - - 21 11 - - SSE 985,0 70 0 0,0
07.12.2018 04:00:00 8,8 4,8 - - 18 10 - - SE 987,6 50 0 0,0
07.12.2018 03:00:00 8,9 5,0 - - 22 12 - - SE 990,6 45 0 0,0
07.12.2018 02:00:00 7,2 3,4 - - 13 7 - - E 993,0 35 0 0,0
07.12.2018 01:00:00 7,9 2,8 - - 13 7 - - SE 995,2 40 0 0,0
07.12.2018 00:00:00 8,6 3,5 - - 11 6 57 31 S 997,3 35 - 0,0
06.12.2018 23:00:00 8,2 3,7 - - 8 4 - - SSE 998,4 30 0 0,0
06.12.2018 22:00:00 6,6 3,1 - - 9 5 - - SE 999,3 27 0 0,0
06.12.2018 21:00:00 6,4 3,5 - - 18 10 - - SSW 999,6 28 0 0,0
06.12.2018 20:00:00 7,0 4,2 - - 5 3 - - SSE 1000,3 26 0 0,0
06.12.2018 19:00:00 7,8 4,1 - - 21 11 - - SW 999,6 40 0 0,0
06.12.2018 18:00:00 7,5 4,2 - - 5 3 - - WSW 999,8 40 0 0,0
06.12.2018 17:00:00 8,9 4,7 - - 22 12 - - WSW 999,4 40 0 0,0
06.12.2018 16:00:00 8,3 4,2 - - 18 10 - - WSW 998,5 40 0 0,0
06.12.2018 15:00:00 9,3 5,7 - - 21 11 - - SW 997,4 45 6 0,0
06.12.2018 14:00:00 10,3 7,0 - - 24 13 - - WSW 996,8 55 30 0,0
06.12.2018 13:00:00 10,0 8,6 - - 22 12 - - W 996,4 75 12 0,0
06.12.2018 12:00:00 7,8 6,0 - - 8 4 - - W 995,8 75 0 0,0
06.12.2018 11:00:00 9,2 6,1 - - 21 11 - - SSW 995,6 75 0 0,0
06.12.2018 10:00:00 8,4 5,6 - - 18 10 - - SSW 996,5 75 0 0,0
06.12.2018 09:00:00 6,0 5,3 5,7 7,7 5 3 - - S 997,2 50 0 0,2
06.12.2018 08:00:00 6,8 5,1 - - 4 2 - - SSE 998,8 50 0 0,4
06.12.2018 07:00:00 6,5 4,9 - - 13 7 - - SE 999,2 18 0 0,6
06.12.2018 06:00:00 7,4 4,0 - - 13 7 - - S 1001,0 75 0 0,0
06.12.2018 05:00:00 6,7 4,5 - - 16 9 - - SE 1001,7 75 0 0,0
06.12.2018 04:00:00 2,3 2,1 - - 2 1 - - NW 1004,0 22 0 0,0
06.12.2018 03:00:00 1,5 0,5 - - 9 5 - - SW 1005,8 19 0 0,0
06.12.2018 02:00:00 3,6 3,0 - - 15 8 - - E 1005,7 22 0 0,0
06.12.2018 01:00:00 1,1 0,3 - - 2 1 - - S 1007,7 15 0 0,0
06.12.2018 00:00:00 3,1 2,7 - - 11 6 - - E 1007,9 15 - 0,0
05.12.2018 23:00:00 2,1 1,7 - - 8 4 - - ESE 1008,0 8 0 0,0
05.12.2018 22:00:00 1,7 0,8 - - 4 2 - - E 1008,8 12 0 0,0
05.12.2018 21:00:00 2,0 1,1 - - 16 9 - - E 1007,9 17 0 0,0
05.12.2018 20:00:00 1,0 0,1 - - 9 5 - - E 1009,3 30 0 0,0
05.12.2018 19:00:00 0,6 -0,5 - - 8 4 - - E 1009,9 30 0 0,0
05.12.2018 18:00:00 0,5 -0,3 - - 5 3 - - ESE 1011,2 22 0 0,0
05.12.2018 17:00:00 -1,5 -1,9 - - 5 3 - - NE 1010,9 50 0 0,0
05.12.2018 16:00:00 -2,0 -3,9 - - 9 5 - - E 1011,2 45 6 0,0
05.12.2018 15:00:00 0,1 -1,7 - - 16 9 - - E 1011,7 55 36 0,0
05.12.2018 14:00:00 0,2 -1,7 - - 11 6 - - E 1012,6 60 30 0,0
05.12.2018 13:00:00 -2,5 -3,0 - - 5 3 - - E 1012,9 24 0 0,0
05.12.2018 12:00:00 -3,5 -4,4 - - 0 0 - - N 1014,5 50 0 0,0
05.12.2018 11:00:00 -3,3 -4,0 - - 5 3 - - E 1015,3 50 0 0,0
05.12.2018 10:00:00 -4,9 -5,4 - - 4 2 - - N 1015,8 40 0 0,0
05.12.2018 09:00:00 -6,5 -7,5 6,2 7,7 2 1 - - NNE 1016,1 40 0 0,0
05.12.2018 08:00:00 -5,1 -5,6 - - 4 2 - - E 1016,5 55 0 0,0
05.12.2018 07:00:00 -5,3 -5,9 - - 2 1 - - W 1016,8 55 0 0,0
05.12.2018 06:00:00 -2,6 -4,1 - - 8 4 - - WSW 1017,2 65 0 0,0
05.12.2018 05:00:00 -2,1 -3,1 - - 9 5 - - WSW 1017,4 70 0 0,0
05.12.2018 04:00:00 -2,6 -4,2 - - 5 3 - - W 1017,4 60 0 0,0
05.12.2018 03:00:00 -0,3 -4,5 - - 9 5 - - SSW 1018,1 65 0 0,0
05.12.2018 02:00:00 1,5 -2,3 - - 13 7 - - S 1018,1 65 0 0,0
05.12.2018 01:00:00 1,2 -2,1 - - 13 7 - - SSW 1018,1 75 0 0,0
05.12.2018 00:00:00 1,3 -1,2 - - 11 6 - - S 1018,4 60 - 0,0
04.12.2018 23:00:00 0,1 -1,3 - - 11 6 - - SW 1018,5 60 0 0,0
04.12.2018 22:00:00 1,1 -0,7 - - 13 7 - - SSW 1018,6 65 0 0,0
04.12.2018 21:00:00 1,0 -0,8 - - 11 6 - - SSW 1018,6 75 0 0,0
04.12.2018 20:00:00 1,2 -1,2 - - 8 4 - - SSW 1018,4 75 0 0,0
04.12.2018 19:00:00 1,0 -1,3 - - 8 4 - - SW 1018,3 75 0 0,0
04.12.2018 18:00:00 2,4 -0,1 - - 13 7 - - SSW 1018,0 60 0 0,0
04.12.2018 17:00:00 2,2 0,7 - - 11 6 - - SSW 1017,6 75 0 0,0
04.12.2018 16:00:00 2,8 0,3 - - 9 5 - - SSW 1017,5 65 0 0,2
04.12.2018 15:00:00 4,2 0,9 - - 13 7 - - SW 1017,0 70 60 0,0
04.12.2018 14:00:00 5,0 1,0 - - 16 9 - - SW 1016,4 70 60 0,0

tt = temperature
td = dewpoint
tt -20cm = temperature -20cm
tt -100cm = temperature -100cm
ff = wind speed
fx = gusts
dd = wind direction
ppp = reduced air pressure
vv = visibility
sd = sunshine duration
rr = precipitation

Next stations